Temperature
23 23 23 23 23 22 22 21 21 20 20 20 19 19 19 19 19 19 19 19 19 19 19 19 18 18 18 19 18 18 18 18 18 18 18 18 18 18 19 19 19 19 20
23 23 23 23 23 22 22 21 21 21 20 19 19 19 19 19 19 19 19 19 19 19 19 18 18 18 18 18 18 18 17 18 17 17 17 17 17 18 18 18 18 19 19
23 23 23 23 23 22 22 22 21 21 20 20 19 19 19 18 18 18 18 18 18 18 18 18 18 18 18 18 18 18 17 17 17 17 16 16 16 17 17 18 18 18 18
23 23 23 23 23 23 22 22 21 21 20 20 19 19 18 18 18 17 17 17 17 18 18 18 18 18 18 18 18 17 17 17 17 16 16 16 15 15 16 17 17 17 17
23 23 24 23 23 23 22 21 21 20 20 19 19 18 18 17 17 17 17 17 17 17 17 17 17 17 17 17 17 17 17 17 16 16 16 15 15 15 15 15 17 17 17
24 24 24 23 23 22 21 21 20 20 19 18 18 17 17 17 16 16 16 17 17 17 17 16 16 16 16 16 16 16 16 16 16 16 15 15 15 15 15 15 15 16 16
24 24 23 23 22 22 21 21 20 19 18 18 17 17 16 16 16 16 16 16 16 16 16 16 16 16 16 16 16 16 16 16 15 15 15 15 15 14 14 15 15 15 15
24 24 23 23 22 21 21 20 20 19 18 17 17 16 16 15 15 15 15 15 15 15 15 15 15 15 15 15 15 15 15 15 15 15 15 15 14 14 14 14 14 14 15
24 23 23 22 22 21 21 20 20 19 18 17 16 16 15 15 15 15 14 14 14 14 14 14 14 14 14 14 14 14 15 14 14 14 14 14 14 14 14 14 14 14 15
23 23 23 22 22 21 21 20 20 19 18 17 16 16 15 15 14 14 14 14 13 13 13 13 14 14 14 14 14 14 14 14 14 14 14 14 14 14 14 14 14 14 15
23 23 22 22 22 21 21 20 19 18 17 16 16 15 15 14 14 13 13 13 13 13 13 13 13 13 13 14 14 14 14 14 13 13 13 14 14 14 14 14 14 14 14
21 22 22 22 21 21 21 20 19 18 17 16 15 15 14 14 13 13 13 12 12 12 12 12 12 12 13 13 13 13 13 13 13 13 13 13 13 13 13 13 14 14 14
19 20 20 20 20 20 20 20 19 18 17 16 15 14 14 13 13 13 12 12 11 11 11 11 12 12 12 12 12 12 12 12 12 12 12 12 13 13 13 13 13 13 13
17 18 18 18 18 19 19 19 18 18 17 16 15 14 14 13 13 12 12 11 11 11 11 11 11 11 11 12 12 12 12 12 11 12 12 12 12 12 13 13 13 13 12
15 15 16 16 17 17 17 18 18 18 17 16 15 14 14 13 13 12 12 11 11 11 11 11 11 11 11 11 11 11 11 11 11 11 11 12 12 12 12 12 12 12 12
14 14 14 15 15 15 16 16 17 17 17 16 15 14 14 13 13 12 12 11 11 11 11 11 11 11 11 11 11 11 11 11 11 11 11 11 12 12 12 12 12 12 12
13 13 13 13 14 14 14 15 16 16 16 16 16 15 14 13 13 12 12 11 11 11 11 11 11 11 11 11 11 11 11 11 11 11 11 11 11 11 11 11 11 11 11
12 12 12 12 12 13 13 14 14 15 15 16 15 15 14 13 13 12 12 11 11 11 11 11 11 11 11 10 11 11 11 11 11 11 11 11 11 11 11 11 11 11 11
11 11 11 11 11 11 12 12 13 13 14 14 15 15 14 13 13 12 12 12 11 11 11 11 11 11 11 11 11 11 11 11 11 11 11 11 11 11 11 11 11 10 10
11 11 10 10 10 10 10 11 11 12 12 12 13 14 14 14 13 13 12 12 11 11 11 11 11 11 11 11 11 11 11 11 11 11 11 11 10 10 10 10 10 10 10
11 11 10 10 10 10 10 10 10 10 10 11 12 13 13 13 13 13 12 12 11 11 11 11 11 11 11 11 11 11 11 11 11 10 10 10 10 10 10 10 10 10 10
11 10 10 10 10 10 9 9 9 9 10 10 11 12 12 13 13 13 12 12 11 11 11 11 11 11 11 11 11 11 11 11 10 10 10 10 10 10 10 10 10 10 10
11 11 10 10 10 10 9 9 9 9 9 9 10 10 11 12 13 13 12 12 11 11 11 11 11 11 11 11 11 11 11 10 10 10 10 10 10 9 9 9 9 9 9
11 10 10 10 10 10 9 9 9 8 8 8 9 9 10 11 12 12 12 12 11 11 11 11 11 11 11 11 11 11 10 10 10 10 10 10 9 9 9 9 9 9 9
10 10 10 10 9 9 9 9 8 8 8 8 8 9 9 10 11 12 12 12 12 12 11 11 11 11 11 11 11 11 10 10 10 10 10 10 9 9 9 9 9 9 8
9 9 9 9 9 9 9 9 8 8 8 8 8 8 9 9 11 12 12 12 12 12 11 12 12 12 12 11 11 11 10 10 10 10 10 10 10 9 9 9 9 9 8
Wind_Speed
10 11 12 11 11 8 8 7 6 3 1 1 3 4 5 5 6 6 7 7 7 6 5 6 5 6 6 6 5 4 5 5 4 3 5 6 8 9 9 8 8 9 9
10 10 10 10 10 8 7 6 5 4 2 1 2 3 4 4 5 5 6 7 6 5 6 7 6 7 6 7 7 6 5 5 5 4 3 4 5 5 7 5 4 4 4
10 9 9 8 8 7 6 5 4 4 3 2 0 2 3 4 4 5 5 6 6 7 7 8 7 8 8 8 8 9 8 7 5 5 5 4 5 4 4 3 2 3 3
8 7 8 7 7 7 7 7 7 5 4 3 2 0 2 3 5 5 5 7 7 7 8 7 8 8 7 8 9 9 7 7 7 5 6 5 4 3 4 4 2 4 3
8 8 8 8 8 7 7 7 6 5 4 3 2 1 2 3 4 5 7 7 7 7 7 7 6 7 7 8 8 7 8 7 7 5 4 4 4 4 4 4 4 4 4
7 8 7 7 6 4 4 4 5 3 3 2 1 1 2 4 6 7 7 7 6 6 7 7 6 6 6 7 8 8 8 7 7 5 5 4 3 3 3 4 3 3 4
7 7 8 7 5 4 3 3 4 2 2 2 1 1 2 3 5 7 7 8 7 6 7 6 6 6 7 7 7 7 7 7 6 6 5 5 4 3 3 3 2 2 3
8 8 8 7 5 5 5 4 3 2 2 2 1 1 2 2 3 5 6 7 7 7 8 7 6 7 7 7 7 6 7 6 6 7 6 5 5 4 4 3 3 1 1
7 7 6 7 7 7 6 5 5 3 2 2 1 1 2 3 4 5 5 6 6 7 8 7 7 6 6 6 6 6 7 6 6 6 6 4 3 3 3 3 3 3 2
5 6 6 7 7 7 6 5 6 5 3 3 2 2 1 2 3 4 6 7 7 7 7 6 5 5 4 4 4 5 5 6 5 4 5 4 3 3 3 3 3 3 3
3 4 6 6 7 6 6 5 5 5 4 4 3 3 1 2 3 4 5 6 6 7 6 6 5 4 3 2 2 3 4 5 4 4 5 5 4 4 3 3 3 2 3
2 2 4 5 6 6 5 5 5 6 6 5 4 4 2 1 1 3 4 5 6 6 6 5 5 5 4 2 2 2 4 5 6 6 6 6 6 6 4 4 5 4 4
9 8 5 4 3 4 5 5 6 6 6 6 6 4 3 2 1 1 3 4 5 6 6 5 6 6 6 6 7 8 8 9 8 8 7 7 8 7 6 6 6 6 7
13 13 11 9 7 6 5 5 6 7 7 7 7 6 6 5 3 2 1 3 4 4 5 5 6 6 7 8 9 10 10 10 9 8 8 7 8 7 8 8 9 9 10
15 15 12 11 10 9 9 7 7 7 7 8 8 8 7 6 5 3 2 2 2 3 4 4 5 6 5 6 7 8 10 9 10 9 8 9 10 11 9 9 9 9 8
13 13 13 13 13 12 12 11 9 8 7 9 9 8 8 7 6 5 4 2 1 1 2 3 3 5 5 7 9 9 9 9 10 9 8 9 10 12 14 14 12 11 9
12 12 12 12 12 13 13 13 11 8 8 9 9 9 10 9 8 7 5 4 3 1 1 2 4 5 5 8 10 12 9 9 8 7 8 8 8 9 8 12 13 12 12
14 14 13 12 11 11 13 14 13 9 8 9 10 10 11 10 9 8 7 6 4 3 3 4 5 5 6 10 12 14 10 9 8 8 8 8 7 7 8 9 9 8 7
10 10 11 10 11 12 12 14 14 11 8 8 10 11 12 12 11 10 9 6 5 5 4 5 6 6 5 10 13 12 8 9 8 7 7 9 8 11 12 10 8 7 7
11 11 11 10 11 12 11 11 13 13 12 11 10 10 12 13 14 13 10 7 6 6 6 6 6 7 6 9 13 12 8 8 6 6 6 9 10 12 12 9 8 7 5
14 13 12 11 10 11 10 11 12 12 13 13 12 10 12 14 14 13 9 8 8 7 7 7 6 7 7 9 12 12 7 8 7 5 4 4 11 12 12 9 7 6 5
15 13 11 11 10 9 9 10 11 12 13 13 13 11 10 13 13 13 11 11 10 9 9 7 7 5 5 7 10 12 11 11 8 6 4 4 9 11 10 8 9 12 9
15 13 12 12 10 9 8 10 11 11 12 13 13 12 10 12 12 14 14 12 11 10 9 9 8 6 4 5 9 12 14 14 7 6 8 8 8 9 7 9 11 9 7
15 13 12 12 12 10 10 10 10 9 10 12 12 11 10 10 11 12 13 13 13 12 11 10 9 7 6 5 5 5 8 10 8 6 6 7 7 7 6 6 6 5 5
13 11 11 12 14 12 11 11 10 8 8 10 11 11 10 10 11 12 13 15 14 15 13 12 11 11 9 10 14 11 8 7 7 7 4 3 3 3 3 4 4 4 5
12 12 12 12 13 12 11 11 9 8 8 8 9 9 10 8 9 11 9 12 13 18 19 17 14 12 14 17 18 16 16 15 15 8 4 3 3 4 4 4 3 3 4
Wind_Direction
99 94 93 89 81 74 79 87 89 79 87 254 258 260 260 262 264 262 260 263 264 261 245 237 223 215 216 223 230 237 243 243 225 243 277 275 259 254 256 257 267 276 274
102 97 96 94 96 94 88 86 90 98 111 216 257 258 268 273 268 275 276 270 267 261 255 235 225 225 225 225 223 221 231 236 210 205 239 290 303 273 253 254 266 308 325
118 116 111 111 115 124 136 136 139 131 135 146 321 330 328 321 317 305 295 289 281 270 253 237 225 225 220 223 221 217 221 235 229 206 201 226 248 290 293 265 273 342 352
132 136 135 139 151 169 171 167 170 169 172 156 141 167 298 296 290 293 292 294 286 276 266 252 235 227 223 225 227 221 220 223 232 223 217 216 208 234 288 296 304 325 322
161 162 164 170 182 185 180 181 182 188 192 179 168 176 276 273 286 299 303 303 297 290 281 265 246 234 227 225 224 218 217 215 219 214 208 220 226 217 229 277 303 321 309
186 183 188 189 199 189 171 172 177 203 216 199 192 215 293 306 316 317 315 310 303 297 289 276 256 242 231 226 225 220 216 213 209 205 198 194 195 200 207 239 279 302 302
200 200 201 202 202 184 168 162 167 211 235 218 249 296 311 319 316 313 313 312 307 298 290 280 264 250 235 228 221 214 212 204 200 201 201 199 202 192 195 208 244 277 298
209 206 202 193 183 168 156 156 164 195 217 208 241 331 347 333 317 315 313 310 304 296 291 283 269 257 242 231 219 214 212 205 204 204 198 199 206 196 192 187 185 225 321
205 198 187 176 171 162 166 172 169 177 193 184 165 38 13 358 335 326 323 315 310 307 303 292 278 261 244 231 217 218 216 202 204 203 198 193 198 184 181 181 179 170 160
170 164 168 172 171 171 176 170 165 173 180 164 144 112 55 13 356 350 340 329 323 322 320 316 303 283 259 236 217 213 205 193 193 189 174 164 155 145 151 164 169 164 153
151 178 181 181 179 179 175 169 168 168 168 166 151 133 107 42 22 2 343 334 332 335 337 335 337 331 305 249 201 203 183 172 166 166 150 135 123 116 117 123 118 115 125
10 236 206 198 194 191 188 180 180 179 183 177 168 160 151 111 48 357 339 340 341 341 343 346 355 5 14 34 93 120 122 126 125 120 114 109 107 92 88 92 90 88 96
13 3 343 307 257 228 214 204 200 195 189 177 171 172 171 164 169 312 331 339 342 349 358 12 21 25 36 58 72 82 84 86 87 91 97 98 98 88 80 80 79 80 83
20 14 6 349 325 298 266 243 227 207 193 182 178 184 190 188 194 211 297 323 337 356 9 19 28 41 54 70 78 82 82 83 81 79 81 82 88 89 85 83 83 88 85
17 12 4 355 345 331 312 288 259 226 200 187 189 196 193 186 187 194 222 297 340 360 10 29 33 43 62 77 89 95 97 92 87 80 77 75 78 78 83 92 91 92 90
4 359 357 353 346 339 327 311 285 251 211 197 200 195 185 185 189 195 202 227 283 334 29 37 48 51 70 90 96 100 100 101 98 90 78 72 67 74 77 82 86 94 99
350 348 346 343 341 336 331 323 302 273 227 209 203 192 187 189 193 193 195 207 219 200 109 77 84 74 75 100 108 108 106 103 101 96 86 82 71 74 80 73 69 68 78
340 337 334 331 332 335 336 333 327 299 251 224 209 196 191 193 190 188 196 203 199 184 160 134 118 98 91 107 111 105 97 93 90 91 95 91 72 79 93 82 68 57 49
318 317 315 315 321 329 333 339 336 325 292 256 228 206 194 191 188 191 195 195 186 184 172 154 143 124 104 107 113 108 101 95 83 80 85 93 86 87 91 85 73 52 26
312 310 313 316 320 323 328 337 337 335 324 300 272 231 200 192 192 194 190 183 181 183 168 159 156 143 128 118 121 119 116 107 98 80 71 84 96 91 90 89 84 67 35
297 298 301 304 305 310 322 326 327 328 320 315 301 262 215 199 194 190 182 176 176 173 170 163 161 153 146 131 132 135 134 136 127 116 101 91 100 95 92 91 87 93 97
290 289 288 288 290 296 305 313 314 314 319 319 311 287 235 207 196 184 182 178 174 173 173 166 160 160 156 143 142 146 151 149 139 144 147 137 113 101 94 87 87 89 87
282 280 277 280 282 283 284 292 298 307 319 322 316 307 267 218 191 184 183 179 178 180 180 175 172 169 165 162 155 150 151 151 141 154 161 150 120 95 84 85 87 83 83
277 275 274 276 279 277 274 271 280 293 307 317 316 312 289 232 201 187 184 182 185 186 184 183 180 170 164 166 160 144 142 142 131 132 146 130 105 88 80 76 74 79 97
280 275 272 274 276 274 272 273 274 281 292 309 315 316 302 249 208 194 190 187 191 190 186 188 183 176 181 189 174 161 160 159 153 134 107 98 96 88 75 73 76 80 86
289 285 279 276 276 275 272 273 271 269 275 293 308 312 308 269 218 195 189 193 188 188 186 184 180 187 185 174 177 176 172 165 154 136 138 151 152 147 147 142 125 106 108
Height
1501 1503 1505 1508 1509 1511 1512 1512 1513 1513 1513 1513 1511 1511 1509 1508 1507 1506 1506 1505 1504 1503 1502 1500 1500 1500 1501 1500 1502 1502 1501 1501 1502 1502 1500 1499 1499 1498 1498 1497 1497 1495 1494
1501 1502 1504 1506 1508 1510 1511 1512 1512 1511 1511 1510 1508 1507 1505 1503 1502 1500 1499 1499 1498 1497 1496 1495 1494 1494 1494 1494 1494 1495 1495 1495 1496 1496 1494 1492 1492 1490 1491 1491 1490 1489 1487
1500 1502 1504 1505 1507 1508 1509 1509 1509 1509 1508 1507 1506 1504 1501 1499 1497 1495 1493 1492 1490 1489 1488 1487 1487 1486 1486 1486 1486 1487 1488 1488 1489 1490 1490 1488 1485 1485 1485 1485 1485 1484 1482
1501 1502 1503 1504 1505 1506 1506 1506 1506 1506 1505 1504 1502 1500 1497 1495 1493 1490 1488 1486 1485 1483 1481 1480 1480 1479 1479 1479 1479 1480 1480 1481 1481 1482 1482 1483 1482 1482 1479 1479 1480 1479 1478
1501 1501 1502 1503 1504 1504 1504 1503 1503 1502 1501 1500 1498 1496 1493 1491 1488 1486 1483 1480 1478 1476 1475 1473 1472 1472 1471 1471 1472 1473 1473 1474 1474 1475 1475 1476 1476 1476 1475 1474 1474 1474 1475
1500 1500 1501 1501 1502 1502 1501 1501 1500 1499 1498 1496 1494 1492 1489 1486 1483 1480 1477 1474 1472 1470 1469 1467 1466 1465 1465 1465 1465 1466 1466 1467 1467 1468 1469 1470 1470 1470 1470 1470 1469 1470 1471
1498 1498 1499 1499 1500 1500 1500 1499 1499 1497 1495 1493 1490 1488 1485 1482 1479 1476 1472 1469 1466 1464 1462 1461 1459 1459 1458 1458 1458 1459 1459 1460 1461 1462 1463 1464 1465 1466 1466 1466 1466 1467 1469
1496 1496 1497 1497 1498 1498 1498 1498 1496 1494 1492 1489 1487 1484 1482 1479 1475 1472 1468 1464 1461 1458 1456 1454 1453 1452 1452 1452 1452 1453 1454 1455 1456 1457 1458 1459 1461 1462 1462 1463 1464 1465 1467
1494 1495 1495 1496 1496 1496 1496 1495 1493 1491 1489 1486 1484 1481 1479 1475 1472 1468 1464 1460 1457 1454 1451 1449 1447 1446 1446 1446 1447 1447 1449 1450 1451 1453 1455 1455 1457 1458 1459 1460 1462 1464 1465
1493 1493 1494 1494 1494 1494 1493 1492 1490 1488 1485 1483 1481 1478 1475 1472 1469 1465 1461 1457 1453 1450 1447 1444 1442 1441 1441 1441 1441 1442 1443 1445 1447 1449 1451 1452 1454 1455 1456 1458 1459 1461 1463
1494 1494 1493 1492 1492 1491 1490 1488 1486 1484 1482 1480 1478 1475 1473 1469 1466 1462 1459 1455 1451 1447 1444 1442 1439 1438 1436 1436 1437 1438 1440 1442 1443 1445 1448 1450 1452 1453 1455 1456 1458 1460 1462
1495 1493 1492 1491 1489 1488 1487 1485 1483 1481 1479 1476 1474 1472 1470 1467 1464 1461 1457 1454 1450 1447 1444 1441 1439 1437 1435 1434 1434 1435 1437 1439 1441 1443 1445 1448 1450 1452 1454 1456 1457 1459 1461
1495 1494 1492 1490 1488 1487 1485 1483 1480 1478 1475 1473 1471 1469 1467 1464 1462 1459 1457 1454 1451 1448 1445 1442 1439 1437 1435 1434 1434 1435 1436 1438 1441 1443 1445 1448 1450 1452 1454 1456 1457 1459 1461
1495 1494 1492 1490 1488 1486 1484 1481 1478 1475 1472 1470 1468 1466 1465 1462 1460 1458 1456 1454 1451 1449 1446 1444 1441 1439 1437 1436 1436 1437 1438 1440 1443 1445 1448 1450 1452 1454 1456 1457 1458 1460 1462
1496 1494 1492 1490 1487 1484 1481 1478 1474 1471 1468 1466 1464 1463 1462 1460 1459 1457 1455 1454 1452 1450 1448 1446 1444 1442 1441 1440 1440 1441 1443 1445 1447 1450 1452 1453 1455 1457 1458 1459 1461 1463 1464
1496 1494 1491 1488 1485 1481 1477 1473 1470 1467 1464 1462 1460 1459 1459 1458 1457 1456 1455 1454 1453 1452 1450 1449 1447 1446 1444 1444 1445 1446 1448 1450 1451 1454 1455 1457 1458 1460 1461 1463 1465 1466 1466
1496 1492 1489 1485 1481 1477 1473 1468 1464 1461 1459 1457 1455 1455 1454 1454 1454 1454 1454 1453 1453 1453 1452 1451 1450 1449 1449 1449 1449 1450 1452 1453 1455 1457 1458 1460 1462 1463 1465 1466 1467 1467 1468
1493 1490 1486 1481 1477 1473 1468 1463 1459 1455 1453 1451 1450 1449 1449 1450 1450 1450 1451 1452 1452 1452 1452 1452 1452 1452 1452 1453 1454 1455 1456 1457 1459 1460 1462 1463 1465 1467 1468 1468 1469 1470 1470
1491 1487 1483 1478 1473 1468 1463 1458 1453 1450 1447 1445 1444 1443 1443 1444 1445 1446 1447 1449 1450 1451 1452 1452 1453 1454 1455 1456 1457 1458 1459 1460 1461 1463 1464 1466 1467 1468 1469 1470 1470 1471 1472
1485 1481 1477 1473 1469 1464 1459 1454 1449 1445 1441 1439 1437 1437 1437 1438 1439 1440 1442 1445 1447 1449 1450 1452 1453 1455 1456 1457 1458 1460 1461 1462 1463 1465 1466 1467 1468 1469 1470 1471 1471 1472 1473
1481 1476 1472 1468 1464 1460 1455 1450 1445 1440 1436 1433 1430 1429 1430 1431 1432 1435 1437 1439 1443 1446 1448 1450 1452 1454 1456 1457 1459 1460 1462 1463 1464 1466 1467 1468 1469 1470 1471 1472 1472 1473 1474
1474 1470 1466 1462 1459 1455 1450 1445 1440 1435 1430 1426 1422 1420 1420 1423 1425 1427 1430 1434 1437 1441 1444 1447 1449 1452 1454 1456 1458 1460 1462 1463 1465 1466 1468 1469 1470 1471 1472 1473 1474 1475 1475
1467 1463 1459 1455 1451 1449 1445 1439 1434 1429 1424 1419 1415 1413 1411 1414 1417 1419 1423 1426 1431 1435 1439 1442 1445 1448 1451 1454 1457 1459 1461 1463 1464 1466 1468 1469 1471 1472 1473 1474 1475 1475 1475
1459 1455 1451 1447 1443 1441 1438 1433 1428 1423 1418 1413 1409 1405 1403 1405 1408 1411 1415 1418 1423 1428 1433 1437 1440 1444 1448 1451 1454 1456 1459 1461 1463 1465 1467 1469 1471 1472 1474 1475 1476 1476 1476
1451 1447 1443 1439 1435 1432 1429 1426 1421 1417 1412 1407 1402 1398 1395 1395 1399 1403 1406 1410 1415 1420 1425 1430 1435 1439 1442 1447 1451 1454 1457 1459 1462 1464 1466 1468 1470 1472 1474 1475 1476 1476 1477
1443 1439 1435 1431 1427 1423 1420 1417 1414 1409 1405 1400 1396 1392 1388 1387 1390 1394 1399 1404 1409 1415 1421 1426 1431 1435 1440 1444 1448 1451 1455 1457 1460 1462 1464 1467 1469 1471 1473 1475 1476 1477 1477